Showing default

LEMUR 2 TILLINFINITY, 63356

Orbit data source: Space-Track

LEMUR 2 TILLINFINITY, 63356 is a payload satellite owned by OroraTech (US) in SSO that was launched on Wed, 26 Mar 2025 UTC via an ELECTRON launch vehicle from the Rocket Lab Launch Complex (RLLC). Payload-class satellites include a variety of spacecraft equipped with specific instruments for various scientific and technological missions. These include communications satellites like Starlink; space stations such as the ISS; scientific satellites like the Hubble; Earth observation satellites from companies like Planet Labs, Umbra, and HawkEye 360; GPS; miniature CubeSats for education and research; and military/defense satellites.

Loading next visibility...
Identifier
63356, 2025-061F
Orbit
SSO
Country
Flag of USUS
Related business
Manufacturer
Spire/Glasgow
Mission
Operational Commercial Imaging
Bus & Motor
CUBESAT 8U, Unknown motor
Mass
~15 kg wet, ~15 kg dry
Launch date (UTC)
2025-03-26 (1 year ago)
Launch vehicle
ELECTRON
Launch site
Rocket Lab Launch Complex (RLLC)
Object type
Payload
Rocket body
Debris
Shape & HBR
Box + 2 Pan, 0.2 m
Radar Cross Section
0.070 m², Medium (>0.1 m² and < 1m²)

Expand to show TLE details & history
Last TLE update: 16 hours ago

TLE from 16 hours ago
0 LEMUR 2 TILLINFINITY
1 63356U 25061F   26264.90248028  .00002536  00000-0  13752-3 0  9997
2 63356  97.5725 240.4362 0015997 274.1205  85.8199 15.15412837 82280
Epoch: 2026-09-21T21:39Z
TLE epoch observation values (Epoch: 2026-09-21T21:39:34.296Z)
Latitude
0.00002°
Longitude
-85.23235°
Altitude
522.018 km
Speed
7.603 km/s
True Right ascension
16h 01m 44s
True Declination
0° 00' 00"
Sunlit
Object was in daylight at epoch
Visualization orbit readout
Latitude
Unknown
Longitude
Unknown
Altitude
Unknown
Speed
Unknown
Apparent Right ascension
Unknown
Apparent Declination
Unknown
Sunlit
N/A
Visualization observer readout
Local Sidereal Time
06:49:33
Azimuth
Unknown
Elevation
Unknown
Doppler factor
Unknown
Orbital elements
Apogee altitude
527.734 km
Perigee altitude
505.675 km
Semi-major axis
6,894.842 km
Eccentricity
0.0016
Inclination
97.5725°
RAAN
240.4362°
Arg. of periapsis
274.1205°
True anomaly
86.00275°
Mean anomaly
85.8199°
Eccentric anomaly
85.91132°
Mean motion
3.79103 °/min
Orbital period
94.96 mins
BSTAR
0.00013752
Loading maneuver chart data...
Computing Atmospheric mass density...
Loading historical data...
Loading historical data...
Loading historical data...
Loading historical data...
Loading historical data...
Loading historical data...
Loading historical data...

Documentation

Showing up to 5 results
|